When you browse on this site, cookies collect data to enhance your experience and personalize the content and advertising you see.
Visit our Privacy Policy to learn more. By continuing to use the site, you agree to this use of cookies and data.
  • In Lithuania
  • List of Countries
  • For 7 days
  • Water Temperature
  • Satellite Maps
  • Weather Map
  • Weather Widgets
  • user-avatar
    Login

    Hourly Weather Da Nang

    Today, 21 April, Sunday

    Time Temperature Precipitation Wind Pressure Humidity
    00:00 +29°C° 0 mm 2 mps 753 mmHg 90%
    01:00 +29°C° 0 mm 2 mps 753 mmHg 89%
    02:00 +29°C° 0.1 mm 2 mps 753 mmHg 89%
    03:00 +28°C° 0.1 mm 2 mps 753 mmHg 88%
    04:00 +28°C° 0.1 mm 2 mps 752 mmHg 87%
    05:00 +29°C° 0.2 mm 2 mps 753 mmHg 85%
    06:00 +30°C° 0.2 mm 2 mps 753 mmHg 83%
    07:00 +31°C° 0 mm 2 mps 753 mmHg 81%
    08:00 +35°C° 0 mm 2 mps 754 mmHg 68%
    09:00 +38°C° 0 mm 2 mps 754 mmHg 55%
    10:00 +42°C° 0 mm 2 mps 754 mmHg 41%
    11:00 +42°C° 0 mm 2 mps 753 mmHg 42%
    12:00 +42°C° 0 mm 3 mps 753 mmHg 42%
    13:00 +42°C° 0 mm 4 mps 752 mmHg 43%
    14:00 +41°C° 0 mm 4 mps 752 mmHg 49%
    15:00 +40°C° 0 mm 4 mps 752 mmHg 55%
    16:00 +37°C° 0 mm 4 mps 751 mmHg 60%
    17:00 +35°C° 0.5 mm 3 mps 752 mmHg 69%
    18:00 +34°C° 0.5 mm 3 mps 752 mmHg 78%
    19:00 +31°C° 0.5 mm 3 mps 752 mmHg 86%
    20:00 +30°C° 0 mm 2 mps 753 mmHg 86%
    21:00 +30°C° 0 mm 2 mps 754 mmHg 87%
    22:00 +30°C° 0 mm 2 mps 754 mmHg 87%
    23:00 +30°C° 0 mm 2 mps 754 mmHg 86%

    Tomorrow, 22 April, Monday

    Time Temperature Precipitation Wind Pressure Humidity
    00:00 +30°C° 0 mm 2 mps 754 mmHg 85%
    01:00 +30°C° 0 mm 2 mps 754 mmHg 84%
    02:00 +29°C° 0 mm 2 mps 753 mmHg 83%
    03:00 +29°C° 0 mm 2 mps 753 mmHg 83%
    04:00 +29°C° 0 mm 2 mps 753 mmHg 82%
    05:00 +29°C° 0 mm 2 mps 753 mmHg 79%
    06:00 +30°C° 0 mm 2 mps 753 mmHg 76%
    07:00 +30°C° 0 mm 2 mps 754 mmHg 74%
    08:00 +34°C° 0 mm 2 mps 754 mmHg 62%
    09:00 +38°C° 0 mm 2 mps 754 mmHg 50%
    10:00 +41°C° 0 mm 2 mps 755 mmHg 39%
    11:00 +42°C° 0 mm 3 mps 754 mmHg 39%
    12:00 +42°C° 0 mm 4 mps 754 mmHg 39%
    13:00 +43°C° 0 mm 4 mps 753 mmHg 39%
    14:00 +41°C° 0 mm 5 mps 753 mmHg 44%
    15:00 +40°C° 0 mm 5 mps 753 mmHg 49%
    16:00 +39°C° 0 mm 5 mps 752 mmHg 54%
    17:00 +36°C° 0 mm 4 mps 753 mmHg 62%
    18:00 +33°C° 0 mm 4 mps 753 mmHg 71%
    19:00 +30°C° 0 mm 3 mps 754 mmHg 80%
    20:00 +30°C° 0 mm 3 mps 754 mmHg 82%
    21:00 +29°C° 0 mm 3 mps 755 mmHg 85%
    22:00 +29°C° 0 mm 2 mps 755 mmHg 88%
    23:00 +29°C° 0 mm 2 mps 755 mmHg 87%

    Day after tomorrow, 23 April, Tuesday

    Time Temperature Precipitation Wind Pressure Humidity
    00:00 +28°C° 0 mm 3 mps 755 mmHg 87%
    01:00 +28°C° 0 mm 3 mps 754 mmHg 86%
    02:00 +28°C° 0 mm 2 mps 754 mmHg 85%
    03:00 +28°C° 0 mm 2 mps 754 mmHg 84%
    04:00 +28°C° 0 mm 2 mps 754 mmHg 83%
    05:00 +29°C° 0 mm 2 mps 755 mmHg 78%
    06:00 +30°C° 0 mm 1 mps 755 mmHg 74%
    07:00 +31°C° 0 mm 1 mps 756 mmHg 69%
    08:00 +34°C° 0 mm 1 mps 756 mmHg 61%
    09:00 +37°C° 0 mm 2 mps 756 mmHg 52%
    10:00 +40°C° 0 mm 2 mps 756 mmHg 44%
    11:00 +40°C° 0 mm 3 mps 756 mmHg 43%
    12:00 +42°C° 0 mm 4 mps 755 mmHg 43%
    13:00 +42°C° 0 mm 4 mps 754 mmHg 42%
    14:00 +41°C° 0 mm 5 mps 754 mmHg 47%
    15:00 +40°C° 0 mm 5 mps 754 mmHg 51%
    16:00 +39°C° 0 mm 5 mps 753 mmHg 56%
    17:00 +36°C° 0.1 mm 4 mps 754 mmHg 64%
    18:00 +33°C° 0.1 mm 3 mps 754 mmHg 73%
    19:00 +30°C° 0.1 mm 3 mps 755 mmHg 82%
    20:00 +30°C° 0 mm 3 mps 755 mmHg 83%
    21:00 +30°C° 0 mm 2 mps 756 mmHg 85%
    22:00 +29°C° 0 mm 2 mps 756 mmHg 87%
    23:00 +29°C° 0 mm 2 mps 756 mmHg 87%

    24 April, Wednesday

    Time Temperature Precipitation Wind Pressure Humidity
    00:00 +29°C° 0 mm 2 mps 756 mmHg 87%
    01:00 +28°C° 0 mm 2 mps 755 mmHg 88%
    02:00 +28°C° 0 mm 2 mps 755 mmHg 87%
    03:00 +28°C° 0 mm 2 mps 755 mmHg 87%
    04:00 +28°C° 0 mm 2 mps 755 mmHg 86%
    05:00 +29°C° 0 mm 2 mps 755 mmHg 81%
    06:00 +30°C° 0 mm 2 mps 756 mmHg 76%
    07:00 +31°C° 0 mm 2 mps 756 mmHg 71%
    08:00 +35°C° 0 mm 2 mps 756 mmHg 61%
    09:00 +38°C° 0 mm 2 mps 756 mmHg 51%
    10:00 +42°C° 0 mm 3 mps 756 mmHg 41%
    11:00 +42°C° 0 mm 3 mps 756 mmHg 39%
    12:00 +42°C° 0 mm 4 mps 755 mmHg 38%
    13:00 +43°C° 0 mm 5 mps 754 mmHg 36%
    14:00 +41°C° 0 mm 5 mps 754 mmHg 40%
    15:00 +40°C° 0 mm 5 mps 754 mmHg 43%
    16:00 +39°C° 0 mm 5 mps 753 mmHg 47%
    17:00 +36°C° 0 mm 4 mps 754 mmHg 57%
    18:00 +33°C° 0 mm 4 mps 754 mmHg 68%
    19:00 +30°C° 0 mm 3 mps 755 mmHg 78%
    20:00 +30°C° 0 mm 3 mps 755 mmHg 80%
    21:00 +29°C° 0 mm 2 mps 756 mmHg 82%
    22:00 +29°C° 0 mm 2 mps 756 mmHg 85%
    23:00 +29°C° 0 mm 2 mps 756 mmHg 83%

    25 April, Thursday

    Time Temperature Precipitation Wind Pressure Humidity
    00:00 +29°C° 0 mm 2 mps 755 mmHg 81%
    01:00 +29°C° 0 mm 2 mps 754 mmHg 79%
    02:00 +28°C° 0 mm 2 mps 754 mmHg 78%
    03:00 +28°C° 0 mm 2 mps 754 mmHg 76%
    04:00 +28°C° 0 mm 2 mps 754 mmHg 75%
    05:00 +29°C° 0 mm 2 mps 754 mmHg 70%
    06:00 +30°C° 0 mm 2 mps 755 mmHg 66%
    07:00 +31°C° 0 mm 2 mps 755 mmHg 61%
    08:00 +35°C° 0 mm 2 mps 755 mmHg 52%
    09:00 +38°C° 0 mm 2 mps 755 mmHg 42%
    10:00 +41°C° 0 mm 2 mps 755 mmHg 32%
    11:00 +43°C° 0 mm 3 mps 755 mmHg 33%
    12:00 +43°C° 0 mm 4 mps 754 mmHg 33%
    13:00 +43°C° 0 mm 5 mps 753 mmHg 34%
    14:00 +42°C° 0 mm 5 mps 753 mmHg 38%
    15:00 +41°C° 0 mm 5 mps 753 mmHg 43%
    16:00 +39°C° 0 mm 5 mps 752 mmHg 47%
    17:00 +36°C° 0 mm 4 mps 753 mmHg 57%
    18:00 +34°C° 0 mm 4 mps 753 mmHg 67%
    19:00 +31°C° 0 mm 3 mps 754 mmHg 76%
    20:00 +30°C° 0 mm 3 mps 754 mmHg 78%
    21:00 +30°C° 0 mm 2 mps 755 mmHg 81%
    22:00 +29°C° 0 mm 2 mps 755 mmHg 83%
    23:00 +29°C° 0 mm 2 mps 755 mmHg 81%

    26 April, Friday

    Time Temperature Precipitation Wind Pressure Humidity
    00:00 +29°C° 0 mm 2 mps 754 mmHg 80%
    01:00 +29°C° 0 mm 2 mps 754 mmHg 79%
    02:00 +29°C° 0 mm 2 mps 754 mmHg 79%
    03:00 +29°C° 0 mm 2 mps 754 mmHg 78%
    04:00 +29°C° 0 mm 2 mps 754 mmHg 78%
    05:00 +29°C° 0 mm 2 mps 754 mmHg 74%
    06:00 +30°C° 0 mm 2 mps 755 mmHg 71%
    07:00 +31°C° 0 mm 2 mps 755 mmHg 68%
    08:00 +35°C° 0 mm 2 mps 755 mmHg 60%
    09:00 +37°C° 0 mm 2 mps 755 mmHg 51%
    10:00 +40°C° 0 mm 2 mps 755 mmHg 43%
    11:00 +40°C° 0 mm 3 mps 754 mmHg 42%
    12:00 +42°C° 0 mm 4 mps 754 mmHg 42%
    13:00 +42°C° 0 mm 5 mps 753 mmHg 41%
    14:00 +41°C° 0 mm 5 mps 753 mmHg 46%
    15:00 +40°C° 0 mm 5 mps 753 mmHg 51%
    16:00 +37°C° 0 mm 5 mps 752 mmHg 56%
    17:00 +35°C° 0 mm 4 mps 753 mmHg 64%
    18:00 +33°C° 0 mm 4 mps 753 mmHg 72%
    19:00 +30°C° 0 mm 3 mps 754 mmHg 80%
    20:00 +30°C° 0 mm 3 mps 754 mmHg 82%
    21:00 +30°C° 0 mm 3 mps 755 mmHg 83%
    22:00 +29°C° 0 mm 2 mps 756 mmHg 84%
    23:00 +29°C° 0.1 mm 2 mps 756 mmHg 85%
    Show more